Regional Weather Roundup
Issued by NWS Wakefield, VA

Home | Current Version | Previous Version | Text Only | Print | Product List | Glossary Off
Versions: 1 2 3 4 5 6 7 8 9 10 11 12 13 14 15 16 17 18 19 20 21 22 23 24 25 26 27 28 29 30 31 32 33 34 35 36 37 38 39 40 41 42 43 44 45 46 47 48 49 50

990
ASUS41 KAKQ 260315
RWRAKQ

REGIONAL WEATHER ROUNDUP
NATIONAL WEATHER SERVICE WAKEFIELD VA
1100 PM EDT MON JUL 25 2016

Note: "fair" indicates few or no clouds below 12,000 feet with no
significant weather and/or obstructions to visibility. * = Denotes
station may not report precipitation (e.g., rain,snow,etc.),
thunder or fog.

VAZ042-051-052>054-056-260400-
NORTHERN VIRGINIA

CITY           SKY/WX    TMP DP  RH WIND       PRES   REMARKS
WASH NATIONAL  MOCLDY    88  73  61 S6G20     29.90R THUNDER HX  95
DULLES         FAIR      82  73  74 NW6       29.91F
FORT BELVOIR   FAIR      79  75  89 S1        29.89F
QUANTICO       NOT AVBL
FREDERICKSBRG* FAIR      87  77  74 W5        29.89S HX  98
STAFFORD*      FAIR      82  75  79 W3        29.95S
WARRENTON      FAIR      83  71  68 NW6       29.92R
CULPEPER*      FAIR      80  78  93 N5        29.93S
MANASSAS*      FAIR      84  75  74 CALM      29.91S
LEESBURG*      FAIR      82  73  74 NW9       29.93S
WINCHESTER     FAIR      82  68  61 W8        29.95S
FRONT ROYAL*   FAIR      77  72  83 CALM      29.94S
LURAY*         FAIR      77  77 100 CALM      29.97S
$$

VAZ048-049-060>072-079>083-260400-
CENTRAL AND SOUTH CENTRAL VIRGINIA

CITY           SKY/WX    TMP DP  RH WIND       PRES   REMARKS
RICHMOND       MOCLDY    86  75  69 SW8       29.93R HX  95
CHESTERFIELD*  FAIR      84  66  54 CALM      29.95R
PETERSBURG*    FAIR      84  76  77 S3        29.95R
HANOVER        FAIR      88  73  61 S7        29.94S HX  95
TAPPAHANNOCK*  FAIR      85  76  73 S6        29.92F
QUINTON*       FAIR      84  79  83 CALM      29.93R HX  96
CHARLOTTSVILLE FAIR      85  73  67 CALM      29.95R
GORDONSVILLE*  FAIR      83  76  78 CALM      29.93S
ORANGE*          N/A     81  77  89 CALM      29.95S
LOUISA*        MOCLDY    88  79  74 CALM      29.93S HX 102
BUMPASS*       FAIR      82  76  84 SW3       29.92S
FARMVILLE*     FAIR      82  77  85 CALM      29.94S
CREWE*         FAIR      84  77  80 SW3       29.95S
FORT PICKETT*  FAIR      83  79  88 SW7       29.95S
CHASE CITY*    FAIR      84  77  80 CALM      29.97R
CLARKSVILLE*   FAIR      82  77  83 SW8       29.97R
SOUTH HILL*    FAIR      82  76  82 S8        30.02S
LAWRENCEVILLE* FAIR      83  77  83 S3        29.95F
EMPORIA*       FAIR      82  75  78 SE3       29.96F
$$

VAZ088>098-260400-
SOUTHEAST VIRGINIA

CITY           SKY/WX    TMP DP  RH WIND       PRES   REMARKS
NORFOLK        FAIR      87  75  67 SW13      29.95S HX  96
VIRGINIA BEACH MOCLDY    90  75  61 SW13G23   29.95S HX 100
NORFOLK NAVAL  MOCLDY    86  75  69 S9G18     29.96S HX  95
WEST POINT*    FAIR      86  75  70 SW5       29.94R HX  95
SALUDA*        FAIR      84  79  84 S5        29.93R HX  96
NEWPORT NEWS   FAIR      86  76  71 SW10      29.94S HX  96
LANGLEY AFB    FAIR      87  76  70 S14       29.94R HX  98
FORT EUSTIS    FAIR      86  78  77 S7        29.92S HX  98
WILLIAMSBURG*  FAIR      88  77  70 SW7       29.95S HX 100
HR EXEC AP*    FAIR      82  75  78 SW8       29.98S
FRANKLIN*      FAIR      83  76  80 S8        29.96S
US460-WAKEFLD  FAIR      83  76  79 S6        29.94S
$$

VAZ020-022-025-037-045-260400-
WEST CENTRAL AND SOUTHWEST VIRGINIA

CITY           SKY/WX    TMP DP  RH WIND       PRES   REMARKS
STAUNTON*      FAIR      77  70  79 CALM      30.03S
WAYNESBORO*    FAIR      79  70  73 W7        30.03R
HOT SPRINGS VA NOT AVBL
LYNCHBURG      FAIR      78  70  76 CALM      30.00S
DANVILLE       FAIR      80  76  87 SW3       29.99R
SOUTH BOSTON*  FAIR      83  76  79 SW5       29.97R
MARTINSVILLE   FAIR      75  74  94 CALM      30.05R
ROANOKE        MOCLDY    78  74  87 N3        30.04S
BLACKSBURG     FAIR      72  71  98 CALM      30.13R
DUBLIN*        FAIR      73  72  95 W5        30.12S
MARION*        MOCLDY    75  69  81 W5        30.17F
HILLSVILLE*    CLOUDY    75  70  85 SW6       30.14R
RICHLANDS*     MOCLDY    75  70  85 S5        30.16S
WISE*          FAIR      72  70  94 SE3       30.17R
ABINGDON*      FAIR      75  70  83 CALM      30.14S
$$

MDZ021>025-VAZ099-100-260400-
SOUTHERN MARYLAND AND THE DELMARVA PENINSULA

CITY           SKY/WX    TMP DP  RH WIND       PRES   REMARKS
PATUXENT RIVER CLOUDY    87  76  69 SW10      29.88F HX  97
BAY BRIDGE APT TSTM      79  73  83 W3        29.94R
LEONARDTOWN    MOCLDY    86  73  66 SW5       29.91F
DOVER          CLOUDY    78  74  86 NE7       29.93S
GEORGETOWN     CLOUDY    83  73  72 NE10      29.93R
EASTON         LGT RAIN  80  77  89 E15       29.95S
CAMBRIDGE      CLOUDY    84  77  79 S3        29.88F
SALISBURY      MOCLDY    81  76  84 S5        29.90F
OCEAN CITY     CLOUDY    84  77  79 S5        29.91F
WALLOPS ISLAND FAIR      81  76  84 S8        29.92F
ACCOMACK*      FAIR      84  75  74 CALM      29.93S
$$

NCZ012>017-030>032-260400-
NORTH CENTRAL AND EASTERN NORTH CAROLINA

CITY           SKY/WX    TMP DP  RH WIND       PRES   REMARKS
ROANOKE RAPIDS FAIR      81  75  83 S6        29.97S
RALEIGH        PTCLDY    85  72  65 SW10      30.00S
ELIZABETH CITY CLOUDY    83  74  74 S14       29.98F
AHOSKIE*       CLOUDY    81  76  86 S7        29.97F
EDENTON*       CLOUDY    84  73  69 S9G16     30.00S
CURRITUCK*     CLOUDY    85  76  74 S5        29.98F
KILL DEVIL HLS CLOUDY    83  75  76 SW7G17    29.99F
MANTEO           N/A     82  78  86 SW15      30.01S
CAPE HATTERAS  PTCLDY    82  75  79 SW12      30.03S
TARBORO*       FAIR      83  76  79 S5        29.99S
GOLDSBORO      PTCLDY    82  77  84 SW8       30.00R
WASHINGTON     NOT AVBL
GREENVILLE     CLEAR     82  73  74 SW9G16    30.02S
NEW BERN       CLEAR     80  75  84 SW8       30.03S
WILMINGTON     CLEAR     81  74  79 SW9       30.04S
$$

VAZ048-260400-
ELSEWHERE

CITY           SKY/WX    TMP DP  RH WIND       PRES   REMARKS
HARRISBURG PA  MOCLDY    73  73 100 CALM      29.92S
BALTIMORE      CLOUDY    80  69  69 E12       29.92R
ANNAPOLIS      LGT RAIN  80  74  81 NE9       29.92R
ANDREWS AFB    TSTM      84  73  70 NW13G28   29.93R
PHILADELPHIA   CLOUDY    75  72  90 S9        29.92F
GREENSBORO     PTCLDY    83  71  67 SW8       30.02R
ROCKY MOUNT    CLEAR     83  75  77 S9        29.99R
$$

VAZ100-260400-
MARINE

STATION/POSITION TIME  TEMP    WIND        PRES    WAVE   SWELL
                       AIR SEA DIR/SP/G            HT/PER HT/PER
                 (UTC) (F)     (DEG/KT/KT) (MB)    (FT/S) (FT/S)
BRANDYWINE LGT   0200   80      60/ 19/ 22   N/A
CAPE MAY NJ      0200   81 73   70/  7/ 11   N/A
LEWES DE         0200   81 72   50/ 15/ 19   N/A
OCEAN-CITY-INLET 0200   76 79  210/  8/ 10   N/A
WACHAPREAGUE VA  0200   84 90  230/  6/  8   N/A
THOMAS POINT MD  0300   79 83   50/ 20/ 22 1013.9R
GOOSES REEF MD   0300   88 85  190/  8/ 10 1012.8F   1
COVE POINT MD    0200   86     210/  6/  8   N/A
SOLOMONS ISLAND  0200   88 85  220/  9/ 11   N/A
BISHOPS HEAD MD  0200   89     190/ 14/ 17   N/A
PINEY POINT MD   0200          220/  6/  7   N/A
POTOMAC MD       0300   87 87  230/ 14/ 17 1011.2F   1/ 3
CAMBRIDGE MD     0200   87 87  180/  4/  5   N/A
LEWISETTA VA     0200   87 87  230/ 10/ 12   N/A
RAPPAHANNOCK LGT 0200          190/ 14/ 16   N/A
STINGRAY PT      0300   88 86  160/ 12/ 14 1013.7S   1/ 2
YORK RVR RNG VA  0200   88     210/ 13/ 14   N/A
YORKTOWN VA      0200   88 85  210/  7/  9   N/A
JAMESTOWN VA     0300   87 89  200/ 10/ 14   N/A     0
DOMINION TERM VA 0200   87     210/ 12/ 15   N/A
KIPTOPEKE VA     0200      83  200/  7/  9   N/A
CHES BAY BRIDGE  0200   88 83  180/  9/ 11   N/A
CAPE HENRY VA    0200   87     200/  6/  9   N/A
WILLOUBY STN VA  0200   88     200/ 15/ 16   N/A
CAPE HENRY BUOY  0242      78                N/A     3/ 4
1ST LANDING BUOY 0300   85 81  200/ 12/ 16 1013.8S
CAPE CHARLES BUO 0256      71                N/A     2/ 4
OFFSHORE WE BUOY 0251      82                N/A     4/ 5
64NM E OF VA BCH 0250   83 80  210/ 17/ 21 1014.6F   4/ 5
DUCK PIER NC     0200   85 65  210/ 15/ 19   N/A
44100 DUCK FRF   0205      75                N/A     2/ 4
44056 DUCK FRF   0211      71                N/A     2/ 8
OREGON INLET NC  0200   85 86  210/ 19/ 23   N/A
HATTERAS NC      0200   83 83  220/ 11/ 16   N/A
DIAMOND SHLS NC  0250   85 85  230/ 17/ 21 1016.8S   4/ 5   2/ 9
CAPE LOOKOUT NC  0300   83     210/ 10/ 12 1016.9S
$$




USA.gov is the U.S. government's official web portal to all federal, state and local government web resources and services.